Tracking 19477 objects as of 16-Jan-2019
HD Live streaming from Space Station
objects crossing your sky now

RUBIN 3/SL-8

Track RUBIN 3/SL-8 now!
10-day predictions
RUBIN 3/SL-8 is classified as:


NORAD ID: 27561
Int'l Code: 2002-054C
Perigee: 681.6 km
Apogee: 746.8 km
Inclination: 98.3 °
Period: 98.9 minutes
Semi major axis: 7085 km
RCS: 7.5153 m2 (large)
Launch date: November 28, 2002
Source: Germany (GER)
Launch site: PLESETSK MISSILE AND SPACE COMPLEX (PKMTR)
aabbcc
Your satellite tracking list
Your tracking list is empty




NASA's NSSDC Master Catalog

Two Line Element Set (TLE):
1 27561U 02054C   19014.96908069  .00000035  00000-0  18798-4 0  9999
2 27561  98.3358 155.1990 0045963 192.3077 167.7001 14.55713968856195
Source of the keplerian elements: AFSPC